CZ-6A DEB, 55537

Orbit data source: Space-Track

CZ-6A DEB, 55537 is space debris in SSO originally from a launch on Fri, 11 Nov 2022 UTC launched from the Taiyaun Space Center, China (TSC). Debris objects in space refer to the collection of defunct objects orbiting the Earth. Examples of debris include non-operational satellites, rocket bodies, and fragments generated from explosions, collisions, or faulty payload assembly.

Loading next visibility...
Identifier
55537, 2022-151YK
Orbit
SSO
Country
Flag of CNCN / PRC
Related business
Manufacturer
SAST
Mission
Spacecraft
Bus & Motor
Unknown
Mass
Unknown
Launch date (UTC)
2022-11-11 (4 years ago)
Launch vehicle
Unknown
Launch site
Taiyaun Space Center, China (TSC)
Object type
Payload
Rocket body
Debris
Shape & HBR
Unknown shape, 0.1 m
Radar Cross Section
Medium (>0.1 m² and <1 m²)

Expand to show TLE details & history
Last TLE update: 23 hours ago

TLE from 23 hours ago
0 CZ-6A DEB
1 55537U 22151YK  26206.14380533  .00018434  00000-0  27563-2 0  9994
2 55537  98.6253 273.7051 0068604 166.1926 194.1177 14.73167766190402
Epoch: 2026-07-25T03:27Z
TLE epoch observation values (Epoch: 2026-07-25T03:27:04.780Z)
Latitude
-0.00003°
Longitude
-80.92512°
Altitude
700.759 km
Speed
7.481 km/s
True Right ascension
18h 14m 49s
True Declination
0° 00' 00"
Sunlit
Object was in full shadow at epoch
Visualization orbit readout
Latitude
Unknown
Longitude
Unknown
Altitude
Unknown
Speed
Unknown
Apparent Right ascension
Unknown
Apparent Declination
Unknown
Sunlit
N/A
Visualization observer readout
Local Sidereal Time
16:11:07
Azimuth
Unknown
Elevation
Unknown
Doppler factor
Unknown
Orbital elements
Apogee altitude
696.26 km
Perigee altitude
599.855 km
Semi-major axis
7,026.194 km
Eccentricity
0.00686
Inclination
98.6253°
RAAN
273.7051°
Arg. of periapsis
166.1926°
True anomaly
193.92753°
Mean anomaly
194.1177°
Eccentric anomaly
194.02246°
Mean motion
3.68522 °/min
Orbital period
97.69 mins
BSTAR
0.0027563
Loading maneuver chart data...
Computing Atmospheric mass density...
Loading historical data...
Loading historical data...
Loading historical data...
Loading historical data...
Loading historical data...
Loading historical data...
Loading historical data...

Documentation

Showing up to 5 results
|